Chino, CA

6:47 PM PDT on April 27, 2017 (GMT -0700)
Chino

Weather History for KCNO - February, 2013

Change the Weather History Date:

Sunday, February 17, 2013

  Actual Average Record
Temperature  
Mean Temperature 52 °F -  
Max Temperature 70 °F 63 °F 84 °F (2007)
Min Temperature 34 °F 41 °F 34 °F (2013)
Degree Days  
Heating Degree Days 13    
Growing Degree Days 2 (Base 50)    
Moisture  
Dew Point 36 °F    
Average Humidity 61    
Maximum Humidity 97    
Minimum Humidity 25    
Precipitation  
Precipitation 0.00 in - - ()
Sea Level Pressure  
Sea Level Pressure 29.97 in    
Wind  
Wind Speed 4 mph (WNW)    
Max Wind Speed 17 mph    
Max Gust Speed -    
Visibility 9 miles    
Events      
Averages and records for this station are not official NWS values.
T = Trace of Precipitation, MM = Missing Value Source: NWS Daily Summary

Daily Weather History Graph

Daily Weather History Graph

Search for Another Location

Airport or City:

Trip Planner

Search our weather history database for the weather conditions in past years. The results will help you decide how hot, cold, wet, or windy it might be!

Date:

Astronomy

Feb. 17, 2013 Rise Set
Actual Time 6:32 AM PST 5:36 PM PST
Civil Twilight 6:07 AM PST 6:02 PM PST
Nautical Twilight 5:38 AM PST 6:31 PM PST
Astronomical Twilight 5:09 AM PST 7:00 PM PST
Moon 10:50 AM PST (2/17) 12:15 AM PST (2/17)
Length of Visible Light 11h 54m
Length of Day
11h 04m
Waxing Crescent, 50% of the Moon is Illuminated
Feb 17
Waxing Crescent
Feb 17
First Quarter
Feb 25
Full
Mar 4
Last Quarter
Mar 11
New

Hourly Weather History & Observations

Time (PST) Temp. Windchill Dew Point Humidity Pressure Visibility Wind Dir Wind Speed Gust Speed Precip Events Conditions
12:53 AM 48.0 °F - 28.0 °F 46% 29.98 in 10.0 mi NE 3.5 mph - N/A   Clear
1:53 AM 37.9 °F - 30.9 °F 76% 29.97 in 10.0 mi Calm Calm - N/A   Clear
2:53 AM 43.0 °F 41.3 °F 30.9 °F 62% 29.96 in 10.0 mi East 3.5 mph - N/A   Clear
3:53 AM 34.0 °F 29.8 °F 28.9 °F 82% 29.96 in 10.0 mi NE 4.6 mph - N/A   Clear
4:53 AM 37.9 °F - 30.0 °F 73% 29.96 in 10.0 mi Calm Calm - N/A   Clear
5:53 AM 39.0 °F 36.8 °F 30.0 °F 70% 29.97 in 10.0 mi East 3.5 mph - N/A   Clear
6:53 AM 34.0 °F 31.0 °F 28.9 °F 82% 29.98 in 10.0 mi North 3.5 mph - N/A   Clear
7:53 AM 45.0 °F - 36.0 °F 71% 29.98 in 10.0 mi Calm Calm - N/A   Clear
8:53 AM 53.1 °F - 30.0 °F 41% 29.99 in 10.0 mi Calm Calm - N/A   Clear
9:53 AM 59.0 °F - 28.0 °F 31% 29.99 in 10.0 mi Calm Calm - N/A   Clear
10:53 AM 64.9 °F - 32.0 °F 29% 29.98 in 10.0 mi West 8.1 mph - N/A   Clear
11:53 AM 66.0 °F - 35.1 °F 32% 29.96 in 10.0 mi West 9.2 mph - N/A   Clear
12:53 PM 69.1 °F - 37.0 °F 31% 29.93 in 10.0 mi West 10.4 mph - N/A   Clear
1:53 PM 70.0 °F - 32.0 °F 25% 29.92 in 10.0 mi West 10.4 mph - N/A   Clear
2:53 PM 69.1 °F - 39.9 °F 35% 29.92 in 10.0 mi WSW 15.0 mph - N/A   Clear
3:53 PM 64.9 °F - 43.0 °F 45% 29.93 in 10.0 mi WSW 17.3 mph - N/A   Clear
4:53 PM 61.0 °F - 44.1 °F 54% 29.94 in 10.0 mi West 15.0 mph - N/A   Clear
5:53 PM 55.9 °F - 44.1 °F 64% 29.95 in 10.0 mi West 9.2 mph - N/A   Clear
6:53 PM 53.1 °F - 46.0 °F 77% 29.97 in 10.0 mi NW 6.9 mph - N/A   Clear
7:53 PM 51.1 °F - 46.0 °F 83% 29.99 in 10.0 mi WNW 8.1 mph - N/A   Clear
9:53 PM 46.0 °F - 44.1 °F 93% 30.04 in 5.0 mi Calm Calm - N/A   Clear
10:53 PM 46.0 °F - 44.1 °F 93% 30.03 in 5.0 mi Calm Calm - N/A   Clear
11:53 PM 43.0 °F - 42.1 °F 97% 30.04 in 3.0 mi Calm Calm - N/A   Clear